RH
20 20 19 17 18 18 16 16 20 20 18 19 17 16 18 18 17 17 20 20 16 17 17 18 19 18 18 19 21 22 24 24 25 27 26 28 33 36 38 40 43 44 42 44 46 46 49 51 52 55 55 55 55 55 54 54 55 59 62 59 62 63 54 50 49 47 47 47 45 44 42 43 40 36 37 40 39 35 33 31 31 32 32 30 29 30
20 21 19 18 21 20 18 18 19 18 17 17 17 17 17 17 17 20 20 19 17 18 20 22 21 19 19 20 21 23 24 23 23 25 25 28 33 36 39 41 43 43 42 43 45 46 48 51 51 54 58 57 56 56 55 54 52 56 63 63 63 61 53 48 47 45 47 47 47 47 47 48 46 43 45 45 39 35 33 29 30 34 34 30 29 30
19 20 20 19 20 20 18 18 17 18 18 18 18 19 19 17 18 22 22 19 19 19 22 25 21 20 19 19 22 22 21 23 26 26 26 29 32 34 40 44 43 42 42 43 45 46 47 50 52 54 58 59 57 57 56 54 52 56 62 64 65 60 51 46 46 46 48 48 47 47 47 48 48 46 45 44 39 37 36 32 33 38 36 32 31 29
21 21 20 19 18 18 19 18 17 19 19 19 20 20 19 18 18 22 22 19 21 21 24 25 21 21 21 20 22 23 21 25 28 28 27 30 32 35 41 45 44 41 42 45 46 48 50 51 54 55 57 57 56 56 54 52 52 55 57 59 62 58 50 47 46 47 49 48 46 44 43 44 45 42 39 38 37 37 38 36 36 38 36 33 31 26
24 23 20 18 17 19 20 19 18 19 20 19 20 20 20 20 19 22 24 22 22 24 24 22 19 22 24 23 22 22 24 26 26 26 27 30 33 36 41 44 43 42 43 44 45 49 53 53 54 54 55 56 55 54 52 51 53 53 55 58 59 56 49 45 45 46 47 46 46 44 42 41 42 40 40 42 40 37 39 41 39 38 37 34 30 28
24 22 18 17 17 18 20 21 19 19 19 19 19 19 21 23 22 24 26 25 24 25 24 20 20 23 23 24 26 24 24 25 25 26 28 30 33 38 41 43 43 43 44 46 47 51 53 53 52 53 55 55 55 54 52 53 54 52 53 56 56 52 45 39 41 44 45 44 44 42 41 42 44 46 46 47 45 42 44 45 43 41 39 36 32 31
23 21 18 18 19 19 20 19 18 18 19 20 18 16 19 23 24 25 25 24 24 25 26 21 22 29 25 23 30 28 25 27 30 32 31 32 37 41 44 45 46 48 50 49 50 50 50 50 52 53 54 55 56 55 52 52 53 51 49 51 54 51 42 36 40 44 44 43 42 42 44 46 49 49 47 46 45 44 42 40 44 45 42 40 36 31
20 20 19 19 22 23 21 19 18 17 19 22 20 16 19 22 23 24 25 25 25 28 30 23 20 29 29 25 29 29 27 30 34 37 36 36 42 47 49 50 52 54 54 51 49 48 47 48 51 53 55 56 56 55 52 49 50 51 49 49 53 53 45 39 41 43 44 44 42 44 47 49 49 46 44 44 44 42 38 36 41 47 46 44 39 33
19 19 21 21 26 27 24 23 21 16 19 25 23 20 22 23 23 24 24 26 27 27 29 25 19 25 31 29 27 28 29 35 40 39 39 42 46 49 51 53 53 53 53 51 48 48 48 49 50 53 55 55 56 54 51 48 47 50 51 50 53 53 49 46 44 45 46 45 42 44 47 46 46 45 45 47 45 41 39 37 38 44 48 45 39 34
22 21 24 25 27 28 25 25 23 18 22 27 24 23 24 23 23 24 25 27 28 25 27 30 25 25 33 31 28 30 32 39 44 41 40 44 46 48 50 51 50 50 52 50 48 49 50 51 52 54 56 55 55 53 51 50 50 53 54 52 53 53 52 50 48 47 46 45 44 44 45 43 44 47 47 47 44 40 40 40 39 45 51 50 45 38
25 24 27 27 27 27 25 24 23 22 23 27 26 24 24 23 23 24 24 26 29 26 26 32 30 27 33 34 30 32 34 37 42 40 38 39 41 44 46 48 49 50 51 51 50 51 52 53 54 56 56 54 54 54 53 54 56 58 59 56 54 53 53 52 49 47 45 45 45 44 43 43 45 47 47 46 43 41 41 42 46 51 53 53 50 44
26 27 27 27 27 26 24 24 25 23 22 25 26 24 24 25 24 24 26 26 27 29 29 33 32 27 32 37 35 35 34 35 39 38 37 36 37 40 41 45 47 49 52 52 50 50 52 54 56 59 60 59 60 60 59 60 61 63 65 63 60 55 52 50 47 46 46 46 45 44 43 44 46 46 47 47 43 42 44 44 48 51 53 53 49 47
28 27 27 27 27 26 25 25 26 25 24 25 25 25 27 28 27 26 29 28 24 30 34 34 33 27 29 38 38 36 36 36 37 38 39 39 38 40 40 41 46 50 53 53 51 50 51 53 55 58 62 62 61 60 61 63 63 65 71 75 73 65 57 51 50 49 50 51 49 45 44 46 49 48 49 48 42 41 46 47 47 51 57 59 54 52
31 29 28 28 27 26 26 27 28 27 26 25 26 26 27 30 33 28 27 29 27 31 35 34 32 28 29 36 37 36 39 39 39 40 42 42 42 43 40 38 44 50 53 55 54 52 52 52 51 53 58 60 59 57 59 63 63 65 73 80 82 79 70 60 58 57 54 54 49 44 44 48 50 50 48 46 41 42 49 52 54 57 64 68 61 51
32 31 29 28 27 27 26 26 29 29 28 26 26 28 27 29 35 30 26 30 30 30 35 34 31 27 31 37 38 38 40 40 41 42 43 44 44 43 41 39 43 49 53 56 58 57 56 54 52 53 57 59 60 59 60 65 66 65 70 78 81 82 77 67 62 58 55 52 48 45 48 51 53 51 48 49 49 51 54 57 60 61 64 68 61 46
33 33 32 30 29 28 27 27 28 29 32 31 27 27 28 28 31 32 32 33 32 31 34 34 30 28 33 38 39 40 41 40 42 43 44 45 45 44 44 43 45 48 51 55 59 60 59 57 58 59 59 57 56 58 63 64 65 65 69 76 80 77 75 71 64 59 58 58 55 53 56 59 60 57 54 57 59 57 57 58 61 58 57 60 54 42
35 34 33 32 31 29 28 28 27 29 35 38 33 29 28 28 30 33 33 33 32 31 32 33 32 30 32 35 38 41 42 42 43 43 44 46 46 46 46 46 47 48 50 53 57 60 62 62 63 62 61 58 54 56 61 60 60 65 68 74 79 77 72 71 69 66 66 65 61 59 58 60 63 61 60 63 63 61 59 57 58 56 53 52 46 38
40 38 37 33 31 30 30 30 29 29 32 39 40 34 31 31 30 31 33 33 32 30 31 34 34 32 32 35 38 40 42 44 45 45 46 47 47 47 48 48 48 49 50 52 55 60 65 65 64 62 61 60 59 58 57 57 59 65 68 72 78 79 74 71 69 66 65 63 61 60 55 54 60 64 64 64 63 63 61 55 51 51 50 47 41 37
44 42 44 40 35 32 30 31 32 31 30 33 36 35 35 36 34 32 33 34 34 33 32 34 34 32 32 37 42 42 44 47 48 49 49 48 48 48 48 48 49 50 51 52 54 58 64 67 65 63 57 55 65 69 61 59 62 64 68 72 75 76 75 71 64 60 59 57 57 59 56 50 50 55 57 58 57 59 59 52 46 47 49 46 39 39
48 46 48 46 40 35 33 33 33 33 32 30 30 31 34 37 37 37 37 34 34 34 34 35 34 32 34 40 44 44 46 49 51 52 51 50 50 51 51 52 53 53 52 50 50 52 58 63 62 64 60 55 62 70 69 66 66 65 69 73 74 74 72 66 60 56 54 50 49 53 54 48 43 45 50 53 54 57 55 48 44 45 48 45 39 38
51 49 50 49 44 39 38 36 34 35 36 34 32 31 31 33 34 37 39 37 36 36 38 38 35 35 41 44 43 43 45 47 48 51 51 52 54 55 56 55 53 52 50 49 49 50 54 55 54 58 66 65 63 67 71 70 69 70 70 72 76 74 66 62 59 56 53 49 46 47 47 46 45 46 49 53 55 55 53 49 47 46 46 44 41 38
52 51 51 51 48 43 42 41 37 37 38 38 37 34 33 34 33 34 36 36 36 35 38 39 36 42 49 46 41 43 43 42 45 47 48 51 54 53 53 53 51 50 50 50 52 53 54 54 52 54 65 73 74 72 69 67 69 73 74 75 78 73 64 62 61 57 53 51 49 47 47 47 46 45 47 49 50 50 49 49 48 44 41 41 42 39
54 53 53 53 51 47 45 44 42 40 37 37 37 37 38 38 37 37 37 37 37 35 35 35 37 47 53 48 45 45 43 43 46 48 51 53 54 52 52 54 53 53 54 54 54 54 56 57 56 58 63 69 72 71 70 69 71 76 77 75 73 71 67 65 62 58 55 53 52 51 50 49 46 45 43 41 42 45 47 48 46 42 39 39 41 41
56 56 56 55 53 50 47 46 44 42 41 40 39 39 40 40 41 41 39 41 42 40 37 34 36 47 52 48 48 48 46 47 50 54 58 60 58 56 55 56 56 56 58 58 58 59 62 62 60 62 66 67 67 67 69 68 66 70 74 71 69 71 72 69 65 62 60 58 58 56 54 51 48 47 44 39 40 44 47 48 46 43 43 42 40 40
59 59 58 56 55 53 51 49 45 42 42 44 44 43 41 41 42 42 41 42 42 42 41 37 40 52 53 48 50 51 50 50 52 59 65 66 62 58 56 58 59 61 61 60 61 64 68 70 68 70 72 72 72 70 67 62 61 64 69 70 71 73 72 69 68 67 65 65 65 62 58 55 51 48 45 42 43 46 47 49 49 46 47 47 42 39
61 63 61 59 59 58 55 53 49 45 43 43 44 44 43 42 43 41 39 39 39 40 41 39 44 57 58 53 53 53 51 53 55 60 65 66 65 61 58 60 62 65 66 65 66 67 70 71 70 72 72 70 69 70 67 66 67 69 72 73 74 74 72 72 71 70 70 69 68 66 62 58 54 51 48 46 48 48 46 48 51 48 45 45 42 39
66 66 65 63 62 61 59 56 52 50 48 47 46 44 44 43 44 43 39 38 40 41 42 43 48 58 61 58 57 55 54 56 57 59 63 67 68 65 60 60 62 66 68 68 67 69 71 71 70 70 69 67 66 66 68 70 71 71 73 74 75 75 75 75 73 70 68 67 66 64 61 58 57 54 53 52 51 48 46 48 52 50 45 41 40 39
68 69 70 67 64 62 61 57 54 53 54 54 52 50 48 45 45 45 43 45 47 45 46 51 52 56 60 58 58 58 57 58 58 60 66 70 71 68 63 58 58 60 62 63 64 66 69 70 68 66 65 65 66 67 69 70 69 67 69 71 73 75 77 75 71 66 62 60 59 57 55 55 56 55 56 55 54 51 48 50 54 55 51 45 41 40
61 66 69 69 66 65 64 60 57 57 57 57 56 53 51 49 49 51 50 50 51 48 51 57 56 56 58 58 58 60 58 58 59 63 70 73 72 70 65 60 56 56 56 57 59 62 64 64 62 60 59 58 60 62 62 62 61 59 58 59 61 64 64 64 64 61 56 54 52 50 50 52 54 55 54 53 55 55 53 52 55 59 60 55 49 46
59 62 64 63 64 65 65 65 63 61 59 58 58 57 54 52 52 54 54 53 53 53 54 56 57 58 59 58 60 61 58 58 61 65 71 73 72 70 68 64 60 58 56 56 56 58 59 59 56 54 52 52 52 53 52 52 52 51 50 51 52 51 50 52 55 55 54 54 54 51 51 50 51 52 52 51 52 53 54 54 56 58 62 62 61 57
62 65 64 60 61 62 63 65 66 65 63 61 61 60 59 57 56 56 57 56 55 56 55 56 58 59 58 58 60 61 60 61 64 68 73 73 72 70 67 65 64 60 57 54 53 54 55 54 52 49 48 48 49 48 47 46 47 46 47 49 49 46 44 45 47 50 52 53 53 53 53 51 50 50 49 49 50 52 54 55 55 55 56 59 61 60
63 66 66 64 65 64 61 62 65 67 68 67 65 64 63 62 61 61 61 60 59 58 57 58 60 59 58 59 62 63 64 65 67 70 73 72 70 66 62 61 59 56 54 53 51 50 51 50 50 49 48 48 47 47 46 46 46 47 48 47 46 44 43 42 42 45 48 49 49 50 50 50 50 49 47 46 47 49 52 54 55 55 53 54 56 57
59 60 63 63 63 62 59 60 63 67 70 70 67 68 69 67 66 66 65 66 65 63 61 62 61 59 59 60 63 65 67 68 71 73 73 72 69 65 62 59 56 54 53 52 52 53 53 52 51 51 51 50 50 49 49 50 51 51 50 47 45 45 44 43 43 44 45 46 45 45 46 47 49 49 49 48 46 45 47 49 51 52 53 54 57 59
54 54 56 57 58 61 60 59 63 68 69 66 65 68 71 71 70 71 71 70 69 67 64 63 62 60 60 61 64 67 68 70 74 75 75 74 71 68 67 66 62 59 56 55 57 59 58 55 52 50 52 54 54 54 55 56 57 55 52 52 51 51 50 48 47 47 46 45 43 42 42 44 46 49 50 50 49 47 46 46 49 51 52 54 58 61
51 52 53 52 54 60 62 62 66 68 65 63 64 64 65 65 66 70 73 72 70 69 68 67 66 64 62 62 63 66 69 72 76 79 79 78 74 73 73 73 71 69 68 68 68 66 63 60 57 56 60 63 62 62 61 61 60 58 57 57 58 57 56 55 53 51 49 45 43 41 41 40 41 43 45 47 48 48 46 46 47 50 52 54 57 58
54 56 56 55 56 60 63 63 64 63 60 60 61 58 57 58 61 65 69 69 66 65 66 66 66 65 65 65 64 64 67 71 75 79 81 82 79 75 74 77 77 76 79 81 80 77 73 71 70 68 68 69 68 65 62 61 63 65 65 64 63 62 61 60 59 56 53 49 46 43 41 40 41 41 43 45 47 48 48 48 49 50 52 55 58 59
61 62 60 58 58 59 61 62 61 60 61 60 57 54 53 56 58 60 62 63 60 57 58 59 59 60 61 63 64 65 66 69 73 75 78 80 79 73 72 75 76 77 80 82 82 80 76 74 75 72 68 68 67 65 63 61 62 66 67 65 63 61 59 58 57 54 52 51 48 45 43 43 43 45 45 45 47 49 49 49 49 50 51 52 56 59
63 64 62 61 59 56 58 60 59 59 63 61 58 56 55 56 57 57 58 61 59 56 56 58 58 58 58 59 62 64 66 67 69 70 72 75 75 73 74 77 77 76 78 77 74 73 71 69 70 67 63 61 59 57 56 55 55 56 58 58 57 56 55 55 54 53 52 51 49 48 48 47 47 46 45 44 47 50 51 50 50 50 50 51 54 55
60 60 61 64 64 60 59 58 57 60 66 65 61 61 60 61 63 62 62 63 62 59 59 60 61 62 62 62 63 65 67 66 64 64 67 69 71 73 75 77 78 76 75 70 66 65 65 63 62 60 57 55 54 52 51 50 50 50 51 51 50 51 53 54 52 52 52 53 52 52 51 49 48 46 44 43 44 45 49 52 53 53 53 55 57 56
60 58 59 62 65 66 67 64 63 69 72 68 64 64 63 65 68 68 64 63 63 63 63 63 64 65 64 66 67 67 68 66 63 64 68 68 68 70 70 71 72 72 71 68 64 62 62 60 58 57 55 53 52 51 50 49 49 49 49 49 49 51 52 51 49 49 49 49 50 50 49 48 46 45 43 43 42 40 42 45 48 49 50 55 61 60
62 60 61 62 62 65 70 70 69 75 76 72 69 68 66 68 70 69 66 64 65 67 66 64 67 67 67 68 68 68 69 68 65 67 69 69 69 69 68 68 68 68 67 65 61 60 60 59 59 57 56 54 53 51 50 50 50 49 48 47 47 47 46 43 41 41 41 40 40 41 42 43 44 43 42 41 40 40 41 41 43 45 45 49 55 56
66 64 63 64 63 64 67 69 70 75 77 75 74 72 73 76 78 74 70 68 67 68 68 67 69 70 70 71 70 69 71 71 69 70 71 71 71 71 70 69 68 66 64 61 58 58 58 57 56 55 53 51 49 48 46 45 43 43 41 39 39 39 38 35 34 33 33 33 33 34 36 38 41 42 42 41 40 41 43 44 45 45 44 47 49 46
69 67 66 68 70 69 70 73 75 77 77 77 79 79 79 82 81 77 75 73 70 71 71 70 72 74 74 74 73 73 73 73 72 74 75 75 75 74 73 72 69 66 63 59 58 56 54 53 53 51 49 47 45 44 42 41 39 38 37 36 36 34 33 32 30 29 28 28 28 29 32 33 36 38 41 42 41 42 44 47 49 49 49 50 50 47
64 65 67 72 74 71 72 77 79 78 76 78 81 82 82 83 81 78 77 76 75 75 74 75 77 77 77 77 77 77 77 77 76 76 76 76 75 74 72 71 68 66 63 61 61 59 57 56 55 53 51 50 48 46 44 42 42 40 39 38 36 34 33 32 31 30 30 30 30 31 32 34 35 37 40 43 45 45 47 49 51 52 53 53 54 54
55 57 61 68 71 71 72 76 77 76 76 76 76 78 80 83 82 80 80 79 78 78 77 78 79 80 79 79 79 79 80 80 80 80 79 78 76 74 73 72 71 69 67 65 64 62 59 57 55 54 53 51 49 48 47 46 45 44 42 41 39 37 36 35 34 33 32 32 32 33 34 36 38 40 42 45 48 51 52 53 54 56 60 62 61 61
47 49 51 57 62 65 67 69 69 71 74 77 78 80 83 85 85 83 82 82 82 82 81 82 83 83 83 82 81 82 83 83 83 83 81 79 78 77 76 76 75 71 68 65 63 60 58 56 55 54 53 52 51 50 50 50 49 47 46 45 42 40 38 34 32 30 28 27 26 26 27 29 31 35 38 41 44 49 52 54 56 58 63 67 68 69
46 46 49 52 56 61 64 65 65 67 70 73 77 81 83 84 85 84 84 84 84 84 84 84 83 84 84 84 84 84 85 84 83 82 80 78 77 76 75 75 73 70 67 65 63 60 57 56 55 53 52 52 51 49 48 48 46 45 44 43 40 39 36 33 31 27 24 23 21 20 21 21 22 25 28 31 35 40 43 47 51 55 58 60 63 67
49 49 51 53 55 58 62 64 65 66 68 69 71 73 75 76 78 78 79 80 80 79 79 80 80 81 81 81 81 80 79 77 75 74 73 71 71 71 69 68 68 65 61 58 55 50 46 45 44 44 45 46 44 41 41 41 40 39 38 37 35 34 33 32 32 31 28 26 24 22 22 22 22 21 21 22 24 27 31 36 42 47 51 53 57 62
49 50 52 54 56 57 58 60 62 64 66 66 67 68 68 69 70 71 72 72 72 73 72 72 71 71 71 70 70 69 68 67 66 65 64 63 62 61 59 58 56 53 50 48 45 42 41 43 43 45 47 48 46 44 43 43 41 40 39 38 38 38 38 37 37 37 36 35 32 29 27 26 25 24 22 22 22 22 24 29 33 41 48 50 55 60
46 48 48 50 55 59 59 58 57 58 59 60 60 61 61 61 62 62 63 63 64 65 66 66 66 66 66 67 66 64 63 62 61 60 60 58 56 55 54 54 53 52 51 50 47 47 50 53 54 55 55 54 51 49 47 44 43 43 44 44 45 45 45 44 44 43 42 43 41 38 35 32 30 29 27 25 23 23 24 26 28 34 42 47 50 53
44 45 44 46 51 55 55 54 52 53 55 55 55 56 56 56 56 56 56 56 56 56 57 57 58 59 59 59 58 58 58 57 56 55 55 53 52 51 51 52 52 52 51 51 50 51 54 54 54 54 52 51 49 47 46 46 48 49 50 52 52 52 51 51 50 48 48 48 48 47 45 41 38 36 33 30 27 25 24 25 26 26 31 38 44 46